Location: Helds Island Access
(38.5526°N, 91.5997°W)
Time: 22:37:13
(UTC-05:00)

Daily predictions for brighter satellites

Satellite Brightness Start Highest point End
(mag) Time Altitude Azimuth Time Altitude Azimuth Time Altitude Azimuth
USA 234 3.9 20:55:51 10° ENE 21:01:39 33° SE 21:07:24 10° S
H-2A R/B 4.1 21:03:10 10° E 21:05:23 13° ENE 21:07:38 10° NE
ERS-1 Rocket 4.0 21:02:40 10° SE 21:07:00 30° ENE 21:11:22 10° N
Cosmos 2227 Rocket 2.5 21:04:05 10° SSW 21:09:43 74° WNW 21:15:23 10° NNE
Meteor 1-24 Rocket 3.8 21:06:33 10° S 21:12:30 79° E 21:18:17 10° NNE
Lacrosse 4 Rocket 2.5 21:08:36 10° SW 21:12:42 50° WNW 21:16:56 10° NNE
Cosmos 1727 Rocket 4.1 21:06:47 10° S 21:13:00 65° E 21:19:16 10° NNE
SL-19 R/B 4.4 21:09:27 10° SSE 21:15:14 83° WSW 21:20:49 10° NNW
Cosmos 1741 Rocket 4.5 21:10:54 10° S 21:15:51 41° ESE 21:20:49 10° NNE
Cosmos 1674 4.0 21:13:09 10° SE 21:16:05 22° E 21:19:00 10° NE
Cosmos 1184 Rocket 2.8 21:15:51 10° S 21:19:09 64° E 21:22:30 10° NNE
SL-16 R/B 2.7 21:14:31 10° N 21:19:57 45° ENE 21:25:09 11° SE
In-Cosmos 22 4.3 21:17:54 10° S 21:23:33 72° E 21:29:18 10° NNE
ARGOS 4.3 21:20:21 10° SE 21:24:56 29° ENE 21:29:32 10° N
NOSS 3-4 (A) 3.9 21:19:13 10° NNW 21:26:21 84° ENE 21:33:42 11° SE
NOSS 3-4 (C) 3.9 21:19:19 10° NNW 21:26:27 83° ENE 21:33:47 11° SE
Cosmos 1356 Rocket 4.2 21:27:39 10° SSE 21:31:27 33° E 21:35:17 10° NNE
Cosmos 1076 Rocket 4.2 21:27:51 10° SSE 21:31:51 37° E 21:35:52 10° NNE
Tiangong 1 1.6 21:29:36 10° W 21:32:20 51° NNW 21:35:04 10° ENE
SAR-Lupe-4 3.6 21:33:11 10° S 21:36:45 80° WSW 21:40:21 10° NNW
Aureole 2 Rocket 4.3 21:34:13 10° NW 21:37:53 33° WSW 21:41:20 10° SSW
Meteor 2-1 Rocket 4.3 21:32:04 10° N 21:37:56 89° W 21:43:38 10° S
Cosmos 2219 Rocket 4.0 21:33:17 10° NW 21:38:02 28° WSW 21:42:45 10° SSW
Terra 4.0 21:37:54 10° ENE 21:39:08 11° ENE 21:40:22 10° NE
Cosmos 2333 Rocket 3.7 21:35:21 10° NW 21:40:22 33° WSW 21:45:21 10° SSW
Okean 3 Rocket 3.6 21:38:26 10° S 21:42:55 72° E 21:47:24 10° NNE
Cosmos 2221 2.6 21:40:36 10° N 21:44:58 68° E 21:48:41 14° SSE
Meteor 1-29 3.8 21:42:12 10° N 21:45:32 52° WNW 21:48:53 10° SSW
Envisat 4.3 21:44:42 10° SSW 21:49:23 37° W 21:54:06 10° NNW
Cosmos 2208 Rocket 4.3 21:45:16 10° N 21:50:31 58° ENE 21:54:24 18° SE
NOAA 11 4.2 21:46:09 13° SSE 21:50:55 72° ENE 21:56:21 10° N
RESURS DK-1 4.1 21:54:01 10° N 21:57:14 21° ENE 21:59:21 15° E
SL-08 RB Rocket 4.3 21:56:04 20° SE 21:58:47 43° ENE 22:03:08 10° N
SPOT 1/Viking Rocket 4.2 21:56:35 19° SE 21:59:43 39° ENE 22:04:28 10° N
Cosmos 1242 Rocket 2.6 21:56:47 10° N 22:00:28 64° E 22:02:31 24° SSE
YAOGAN 11 4.4 21:58:18 21° SE 22:01:06 54° ENE 22:05:32 10° N
Cosmos 1766 Rocket 3.7 21:58:37 18° SSE 22:01:38 53° E 22:05:52 10° NNE
Meteor 1-21 Rocket 4.2 21:58:43 10° S 22:04:25 80° E 22:10:03 10° NNE
USA 245 3.3 22:03:34 29° SE 22:04:54 50° ENE 22:08:40 10° N
Cosmos 1570 Rocket 4.0 21:59:45 10° NNW 22:05:05 87° ENE 22:08:43 21° SSE
EO 1 Delta rocket 4.5 22:04:01 22° SE 22:06:33 39° ENE 22:10:50 10° N
Milstar 3 Cent rocket 4.2 22:02:22 10° WSW 22:09:29 40° S 22:18:44 19° SE
Cosmos 2297 Rocket 4.2 22:05:38 10° WSW 22:10:32 30° WNW 22:15:29 10° N
SL-14 R/B 4.2 22:10:43 27° ESE 22:11:42 31° E 22:15:13 10° NNE
Cosmos 2228 Rocket 4.2 22:08:49 10° NNE 22:12:53 30° ENE 22:14:28 24° ESE
Cosmos 1867 3.8 22:11:39 10° SW 22:17:05 73° WNW 22:22:33 10° NNE
Cosmos 1743 Rocket 4.3 22:16:55 29° SE 22:18:07 35° E 22:22:03 10° NNE
H-2A R/B 3.8 22:17:20 17° E 22:18:40 19° ENE 22:21:40 10° NNE
MetOp-B 4.3 22:17:12 18° S 22:21:11 71° WSW 22:26:32 10° NNW
Cosmos 2263 Rocket 3.2 22:21:44 24° ESE 22:22:30 25° ESE 22:26:56 10° NE
Cosmos 1151 Rocket 4.4 22:20:24 10° NNE 22:23:56 23° ENE 22:24:51 22° E
Cosmos 1300 3.3 22:20:35 10° N 22:24:13 39° E 22:25:01 35° ESE
Cosmos 1459 Rocket 4.1 22:18:31 10° N 22:24:48 75° W 22:29:36 18° S
Cosmos 2100 Rocket 4.3 22:18:40 10° NNW 22:24:56 70° W 22:30:08 16° S
Cosmos 1626 4.2 22:25:42 15° ENE 22:25:42 15° ENE 22:27:17 10° NE
Cosmos 2061 Rocket 4.1 22:19:34 10° N 22:25:59 82° W 22:30:42 19° S
SPOT 5 2.9 22:28:20 26° S 22:31:01 76° WSW 22:36:04 10° NNW
ATLAS 5 CENTAUR R/B 3.4 22:26:51 10° WSW 22:31:09 36° NW 22:35:50 10° NNE
Cosmos 1726 2.0 22:28:57 10° N 22:32:38 70° E 22:33:27 50° SE
OAO 1 Rocket 4.5 22:28:55 10° WSW 22:34:10 57° S 22:36:51 28° ESE
Cosmos 2123 Rocket 3.9 22:30:34 22° S 22:34:41 74° E 22:40:52 10° N
IGS 5A 4.4 22:33:58 29° E 22:34:52 33° ENE 22:38:36 10° N
Meteor 2-10 4.4 22:29:41 10° N 22:35:13 58° ENE 22:37:39 33° SE
Lacrosse 5 2.5 22:30:50 10° NNW 22:35:43 47° NE 22:38:09 27° E
Cosmos 2173 Rocket 4.4 22:31:59 10° NNW 22:38:00 59° W 22:42:44 17° SSW
Cosmos 468 Rocket 3.9 22:34:34 10° NNW 22:39:43 78° ENE 22:41:44 38° SSE
Cosmos 371 Rocket 3.6 22:38:14 10° N 22:42:57 52° ENE 22:44:22 38° ESE
H-2A R/B 2.1 22:41:25 32° S 22:43:58 84° WSW 22:49:25 10° NNW
USA 234 3.7 22:38:24 10° NE 22:44:52 65° NW 22:51:19 10° WSW
Nimbus 7 Rocket 4.5 22:39:04 10° NNE 22:45:06 80° WNW 22:50:05 15° SSW
Abrixas rocket 4.3 22:43:28 10° NW 22:46:07 22° NNE 22:47:34 17° NE
Cosmos 1603 3.6 22:41:23 10° NNW 22:47:04 83° ENE 22:49:18 38° SSE
Atlas Centaur 2 3.6 22:49:14 10° SW 22:49:18 10° SW 22:49:18 10° SW
Cosmos 1455 3.9 22:55:05 10° NNE 22:57:48 21° ENE 22:57:48 21° ENE
Cosmos 220 Rocket 4.1 22:57:31 36° SSW 22:59:17 79° WNW 23:03:42 10° NNE
Cosmos 1725 Rocket 4.0 22:53:22 10° N 22:59:38 81° W 23:02:34 34° S
Landsat 7 3.8 22:59:49 46° S 23:01:14 78° WSW 23:06:01 10° NNW
SL-16 R/B 4.0 22:59:20 10° NW 23:03:42 23° W 23:07:03 14° SW
Cosmos 1943 3.5 22:58:44 10° NNW 23:04:18 56° ENE 23:05:59 41° ESE
ARGOS 4.4 23:01:50 19° SSW 23:05:02 34° W 23:09:57 10° NNW
deb Chang Zheng 4 3.6 23:02:35 10° NNE 23:06:54 59° ESE 23:07:04 58° ESE
CZ-4C R/B 4.1 23:09:43 13° E 23:09:43 13° E 23:10:48 10° ENE
Tiangong 1 2.7 23:05:40 10° WNW 23:07:55 30° NNW 23:07:55 30° NNW
CZ-4B R/B 3.7 23:07:30 10° NNE 23:12:38 50° E 23:13:10 48° ESE
CZ-4 R/B 3.8 23:09:04 10° NNE 23:13:54 63° ESE 23:14:23 59° SE
Cosmos 2058 2.7 23:15:04 80° SSE 23:15:16 86° E 23:19:30 10° N
Cosmos 1703 3.4 23:16:14 65° ENE 23:16:14 65° ENE 23:19:54 10° NNE
Terra 1.8 23:15:15 58° S 23:16:11 79° WSW 23:20:57 10° NNW
Cosmos 1356 3.8 23:18:00 62° NNW 23:18:00 62° NNW 23:21:03 10° N
Cosmos 540 Rocket 4.4 23:13:00 10° N 23:17:40 33° ENE 23:18:37 31° E
Cosmos 1500 Rocket 4.1 23:22:19 42° SW 23:23:27 54° W 23:27:51 10° N
Meteor 1-11 4.4 23:22:54 36° SSW 23:25:20 70° W 23:31:10 10° N
Cosmos 1354 Rocket 3.9 23:26:34 63° SSE 23:27:09 70° ESE 23:32:22 10° NNE
ERBS 3.4 23:25:26 10° NW 23:27:57 43° N 23:27:57 43° N
Cosmos 2151 3.5 23:30:35 47° WSW 23:31:15 52° W 23:35:27 10° N
CARTOSAT-1 4.1 23:32:40 45° WSW 23:33:01 47° W 23:37:10 10° NNW
SME Rocket 3.5 23:34:19 49° NE 23:34:19 49° NE 23:38:11 10° N
RESURS DK-1 3.6 23:31:38 10° NW 23:35:16 31° WSW 23:35:16 31° WSW
CZ-2C R/B 3.8 23:33:12 10° NE 23:37:05 27° E 23:37:05 27° E
Spot 4 3.7 23:39:25 78° SSE 23:39:46 90° ENE 23:44:40 10° NNW
Cosmos 1805 Rocket 3.8 23:42:51 60° NE 23:42:51 60° NE 23:46:37 10° NNE
Cosmos 1633 Rocket 4.1 23:49:53 36° ENE 23:49:53 36° ENE 23:53:00 10° NNE
Cosmos 304 Rocket 3.7 23:44:11 10° NNW 23:48:57 75° ENE 23:48:57 75° ENE
Cosmos 841 Rocket 3.8 23:45:44 10° NNW 23:50:51 55° WSW 23:51:18 53° SW
Cosmos 1763 Rocket 4.3 23:49:28 10° NW 23:54:10 38° WSW 23:54:37 37° WSW
H-2A R/B 3.1 23:54:28 35° W 23:54:28 35° W 23:58:22 10° NNW
